Location: Proctor
(47.8934°N, 114.3048°W)
Time: 05:11:49
(UTC+00:00)

Envisat - Pass Details

Date: 28 May 2024
Orbit: 762 x 764 km, 98.3° (Epoch: 13 June)

Event Time Altitude Azimuth Distance (km) Brightness Sun altitude
Rises 10:03:49 0° 23° (NNE) 3,238 8.0 -12.9°
Reaches altitude 10° 10:06:28 10° 36° (NE) 2,307 7.0 -12.6°
Maximum altitude 10:10:45 27° 93° (E) 1,445 4.8 -12.2°
Drops below altitude 10° 10:15:00 10° 151° (SSE) 2,292 5.2 -11.8°
Sets 10:17:37 0° 163° (SSE) 3,212 5.9 -11.5°
